Weather in Herzogenaurach

Germany     49°34′04″N   10°52′41″E
temp.,
°C
wind,
m/s
gust,
m/s
humid.,
%
clouds,
%
prec.,
mm/h
press.,
hPa
HPBL,
m
13 may, thu
thu1323:00+9wnw119099 0.0 101118
02:00+9w119095 0.0 101024
05:00+8wnw1193100 0.0 100816
08:00+10w2489100 0.0 1008224
11:00+13wnw4578100 0.6 1007514
14:00+15wnw4564100 1.5 10061384
17:00+15wnw3562100 0.6 10051293
20:00+10w61292100 2.0 1007465
14 may, fri
fri1423:00+7wsw41092100 0.0 1008395
02:00+7wsw41086100 0.0 1008454
05:00+6wsw289282 0.0 1008255
08:00+9w3683100 0.0 1009401
11:00+13w456351 0.1 10091347
14:00+15w445452 0.4 10081701
17:00+16w445514 0.2 10071486
20:00+12w367556 0.2 1008334
15 may, sat
sat1523:00+9w259066 0.0 1010133
02:00+7wsw259212 0.0 1011132
05:00+6ssw119146 0.0 101128
08:00+9s358089 0.0 1011305
11:00+13ssw5659100 0.1 10091427
14:00+15ssw4658100 0.6 10071615
17:00+13w6778100 1.4 1007831
20:00+10w1387100 2.4 1007232
16 may, sun
sun1623:00+9sw3794100 3.9 1008498
02:00+6ssw379627 4.1 1009201
05:00+7ssw3895100 0.0 1008282
08:00+7s3796100 2.0 1008318
11:00+8s2595100 2.7 1008246
14:00+13wsw467499 4.5 10061358
17:00+14sw2472100 1.6 10051040
20:00+11sw258842 3.7 1005149
17 may, mon
mon1723:00+8ssw38955 1.0 1006206
02:00+7s3795100 1.0 1006183
05:00+7ssw399486 0.0 1006231
08:00+9ssw41088100 0.0 1007628
11:00+10wsw5981100 0.4 10071219
14:00+10wsw488389 0.9 10081051
17:00+12w686962 0.7 10071299
20:00+10wsw410845 1.3 1008674